OSCAR 7 (AO-7) 1 07530U 74089B 26237.89886786 -.00000022 00000+0 15448-3 0 9992 2 07530 101.9921 251.8744 0012238 0.1241 118.5067 12.53699279369251 PHASE 3B (AO-10) 1 14129U 83058B 26234.88657270 -.00000310 00000+0 00000+0 0 9994 2 14129 25.9661 208.6277 5988982 133.9728 294.5118 2.05871966296867 UOSAT 2 (UO-11) 1 14781U 84021B 26237.88828848 .00001168 00000+0 12396-3 0 9999 2 14781 97.8131 202.7178 0006584 324.2420 35.8357 14.90945690267518 LUSAT (LO-19) 1 20442U 90005G 26237.04320253 .00000074 00000+0 42953-4 0 9992 2 20442 98.8841 260.7408 0011651 9.8689 350.2721 14.34139632912269 EYESAT A (AO-27) 1 22825U 93061C 26237.64360666 .00000062 00000+0 40515-4 0 9991 2 22825 98.6827 305.0126 0007275 254.2728 105.7652 14.30957310716934 ITAMSAT (IO-26) 1 22826U 93061D 26237.46247518 .00000065 00000+0 41460-4 0 9995 2 22826 98.6775 304.7564 0007925 235.8836 124.1596 14.31385784717222 RADIO ROSTO (RS15) 1 23439U 94085A 26237.82558389 -.00000060 00000+0 -48772-3 0 9993 2 23439 64.8153 190.5883 0158498 351.2409 8.5757 11.27584116303759 JAS-2 (FO-29) 1 24278U 96046B 26237.36397844 .00000007 00000+0 46340-4 0 9999 2 24278 98.5187 76.7535 0348794 276.9492 79.2100 13.53277117482527 TECHSAT 1B (GO-32) 1 25397U 98043D 26237.39393178 .00000046 00000+0 40069-4 0 9995 2 25397 99.0129 231.9166 0001947 49.5442 310.5906 14.24439747461184 ISS (ZARYA) 1 25544U 98067A 26237.66055539 .00007716 00000+0 14485-3 0 9994 2 25544 51.6329 316.2335 0007673 83.1052 277.0809 15.49625410582525 PCSAT (NO-44) 1 26931U 01043C 26237.93430801 .00000098 00000+0 67436-4 0 9993 2 26931 67.0497 63.8701 0005642 270.5104 89.5352 14.31977935300438 SAUDISAT 1C (SO-50) 1 27607U 02058C 26237.54008956 .00000789 00000+0 11043-3 0 9999 2 27607 64.5511 274.3876 0073049 249.7539 109.5704 14.83176539274742 CUTE-1 (CO-55) 1 27844U 03031E 26237.51147311 .00000229 00000+0 11777-3 0 9993 2 27844 98.6766 245.2071 0009337 351.9382 8.1646 14.24371784201541 CUBESAT XI-IV (CO-57) 1 27848U 03031J 26237.95654107 .00000199 00000+0 10644-3 0 9999 2 27848 98.6795 245.3030 0009642 9.4215 350.7143 14.23652119201307 MOZHAETS 4 (RS22) 1 27939U 03042A 26237.96873972 .00000738 00000+0 12152-3 0 9991 2 27939 98.3485 64.3145 0012373 51.0826 105.7074 14.73573435225825 CUBESAT XI-V 1 28895U 05043F 26237.36419793 .00001079 00000+0 17699-3 0 9997 2 28895 98.3070 34.4804 0013693 351.6144 8.4832 14.72786905111939 CUTE-1.7+APD II (CO-65) 1 32785U 08021C 26237.90666301 .00005062 00000+0 31529-3 0 9992 2 32785 97.8339 220.8308 0009630 142.5170 217.6732 15.10011919995714 SEEDS II (CO-66) 1 32791U 08021J 26237.41702366 .00018518 00000+0 54848-3 0 9996 2 32791 97.7552 238.7512 0004709 80.3531 279.8243 15.34917306997905 YUBILEINY (RS30) 1 32953U 08025A 26237.95346594 .00000022 00000+0 86870-4 0 9998 2 32953 82.5065 312.0509 0020206 156.6538 203.5464 12.43182154828366 KKS-1 (KISEKI) 1 33499U 09002H 26237.81061433 .00001121 00000+0 14376-3 0 9993 2 33499 98.1157 161.3523 0009273 68.0776 292.1422 14.83273441946511 SWISSCUBE 1 35932U 09051B 26237.47268478 .00000819 00000+0 17093-3 0 9993 2 35932 98.3960 146.5478 0007065 8.6608 351.4713 14.62593917899287 BEESAT-1 1 35933U 09051C 26237.31327936 .00000670 00000+0 14392-3 0 9996 2 35933 98.3887 145.8750 0005881 25.4808 334.6681 14.61814298899288 ITUPSAT1 1 35935U 09051E 26237.22786161 .00000631 00000+0 14006-3 0 9996 2 35935 98.3967 144.9052 0008270 32.8637 327.3076 14.60527291898819 XIWANG-1 (HOPE-1) 1 36122U 09072B 26237.93503150 .00000014 00000+0 15411-3 0 9997 2 36122 100.4074 190.6680 0008206 75.2210 284.9811 13.16440482802180 O/OREOS (USA 219) 1 37224U 10062C 26237.50382583 .00001438 00000+0 14056-3 0 9995 2 37224 71.9690 283.2937 0016452 290.7602 69.1805 14.93977355126999 JUGNU 1 37839U 11058B 26237.69457920 .00000381 00000+0 59587-4 0 9996 2 37839 19.9598 246.1391 0018747 123.6988 34.6971 14.13792822768878 SRMSAT 1 37841U 11058D 26237.64850984 .00000372 00000+0 57963-4 0 9997 2 37841 19.9733 359.0284 0011603 248.5454 227.7610 14.11588441767643 STRAND-1 1 39090U 13009E 26237.05030199 .00000204 00000+0 82999-4 0 9997 2 39090 98.3960 55.6074 0009251 32.4047 327.7706 14.37197535706956 ZACUBE-1 (TSHEPISOSAT) 1 39417U 13066B 26236.85384148 .00005302 00000+0 40596-3 0 9996 2 39417 97.8038 199.5196 0041906 23.2843 337.0267 15.01612971691033 GOMX-1 1 39430U 13066Q 26237.97702644 .00001314 00000+0 20289-3 0 9996 2 39430 97.6453 74.0409 0127223 212.7160 146.6122 14.69632685680168 CUBEBUG-2 (LO-74) 1 39440U 13066AA 26237.58439925 .00002289 00000+0 21261-3 0 9996 2 39440 97.8944 186.8951 0057561 155.7912 204.6033 14.94160522687356 FUNCUBE-1 (AO-73) 1 39444U 13066AE 26237.64059104 .00006642 00000+0 40337-3 0 9996 2 39444 97.8340 210.6043 0034556 330.2827 29.6438 15.10351827690146 UWE-3 1 39446U 13066AG 26237.31936153 .00002976 00000+0 25460-3 0 9996 2 39446 97.8759 193.8996 0050349 88.6958 272.0031 14.97420104687922 UNISAT-6 1 40012U 14033C 26237.84862580 .00002980 00000+0 32071-3 0 9993 2 40012 97.7963 29.3854 0044360 196.9781 162.9954 14.88531705656521 DUCHIFAT-1 1 40021U 14033M 26237.14481635 .00366648 00000+0 14053-2 0 9997 2 40021 98.0331 306.9909 0005949 211.7167 148.3745 15.86494321666598 QB50P1 1 40025U 14033R 26235.48502800 .00006735 00000+0 32359-3 0 9992 2 40025 98.0979 251.4010 0008563 7.5646 352.5714 15.19176645663241 LILACSAT-2 1 40908U 15049K 26237.94448920 .00016969 00000+0 26700-3 0 9998 2 40908 97.4595 277.5245 0006372 16.2846 343.8611 15.53653603606576 FOX-1A (AO-85) 1 40967U 15058D 26237.49856736 .00002171 00000+0 19717-3 0 9991 2 40967 64.7741 63.5221 0136019 30.4700 330.4226 14.91324002123901 CAS-2T & KS-1Q 1 41847U 16066G 26237.63328928 .00000444 00000+0 72501-4 0 9994 2 41847 98.3779 312.5742 0340060 278.8674 77.4165 14.44814903514826 RADFXSAT (FOX-1B) 1 43017U 17073E 26237.57781441 .00008388 00000+0 35626-3 0 9991 2 43017 97.4604 103.3769 0149730 88.8422 272.9959 15.13613062475885 DIWATA-2B 1 43678U 18084H 26237.98599726 .00001505 00000+0 12402-3 0 9996 2 43678 98.1203 77.2663 0010495 299.6899 60.3279 15.00677268426680 ES'HAIL 2 1 43700U 18090A 26237.90675137 .00000142 00000+0 00000+0 0 9995 2 43700 0.0118 108.2574 0002460 74.6080 143.5084 1.00271869 28379 FOX-1CLIFF (AO-95) 1 43770U 18099N 26237.12870356 .00010853 00000+0 39892-3 0 9990 2 43770 97.4330 297.1627 0010110 103.4878 256.7489 15.28031746423745 ITASAT 1 43786U 18099AE 26237.56502544 .00006102 00000+0 28729-3 0 9995 2 43786 97.3980 287.7064 0013981 108.7356 251.5397 15.19813151423446 JY1SAT (JO-97) 1 43803U 18099AX 26236.62279797 .00015872 00000+0 45910-3 0 9997 2 43803 97.4076 299.7724 0006049 42.5314 317.6397 15.35682704424121 UWE-4 1 43880U 18111E 26237.75979179 .00035833 00000+0 63094-3 0 9995 2 43880 97.5821 169.5715 0009870 78.1766 282.0592 15.50315472421547 TIANYAN 01 1 44881U 19093C 26237.98024344 .00000353 00000+0 45759-4 0 9995 2 44881 97.7489 308.4948 0012468 212.1934 147.8522 14.86610105361786 RS-44 & BREEZE-KM R/B 1 44909U 19096E 26237.58492434 .00000027 00000+0 67429-4 0 9990 2 44909 82.5210 293.5984 0217080 342.4094 16.9570 12.79748902311226 SALSAT 1 46495U 20068K 26237.26336135 .00007111 00000+0 24232-3 0 9998 2 46495 97.8877 244.5903 0011122 65.4484 294.7913 15.30667520325922 XW-3 (CAS-9) 1 50466U 21131B 26237.95832550 .00000129 00000+0 53513-4 0 9998 2 50466 98.4979 329.9694 0002981 240.3994 119.6898 14.41410478245166 GREENCUBE (IO-117) 1 53109U 22080E 26237.13121200 -.00000003 00000+0 00000+0 0 9992 2 53109 70.1267 274.2694 0009210 274.4962 85.4645 6.42583689 96494 UMKA 1 (RS40S) 1 57172U 23091G 26237.88704810 .00005115 00000+0 23016-3 0 9999 2 57172 97.4998 296.3267 0011203 230.9320 129.0920 15.21495956174609 CUBESX-HSE 3 (RS42S) 1 57178U 23091N 26237.93074561 .00012571 00000+0 39914-3 0 9992 2 57178 97.5042 304.4565 0009858 195.2943 164.8003 15.32755115175108 MONITOR-3 (RS58S) 1 57180U 23091Q 26237.92029220 .00009692 00000+0 34570-3 0 9999 2 57180 97.5032 301.9174 0010581 205.1925 154.8800 15.29052161174946 MONITOR-4 (RS57S) 1 57182U 23091S 26237.89534628 .00009181 00000+0 32672-3 0 9994 2 57182 97.5026 301.8672 0010560 205.7112 154.3605 15.29144015174942 MONITOR-2 (RS39S) 1 57184U 23091U 26237.93306109 .00004069 00000+0 19500-3 0 9997 2 57184 97.5018 295.7682 0009833 223.1950 136.8514 15.19456908174548 SVYATOBOR 1 (RS60S) 1 57187U 23091X 26237.90732692 .00007848 00000+0 29294-3 0 9996 2 57187 97.5038 302.1392 0008661 196.3842 163.7119 15.27639893174953 VIZARD-METEO (RS38S) 1 57189U 23091Z 26237.93650099 .00016588 00000+0 44474-3 0 9999 2 57189 97.5043 308.9021 0007313 168.6296 191.5115 15.38033384175403 POLYTECH-UNIVERSE 3 (R*) 1 57191U 23091AB 26237.95051033 .00004033 00000+0 19189-3 0 9994 2 57191 97.4992 295.2901 0013737 243.2428 116.7402 15.19673952174549 UTMN 2 (RS27S) 1 57203U 23091AP 26237.91116387 .00011911 00000+0 36907-3 0 9998 2 57203 97.5038 306.1542 0007713 178.3339 181.7931 15.33565826175225 KUZGTU 1 (RS47S) 1 57217U 23091AV 26237.92147210 .00011274 00000+0 37534-3 0 9992 2 57217 97.5013 303.1608 0009994 199.9922 160.0929 15.31257322175047 SONATE-2 1 59112U 24043Q 26237.86742750 .00045937 00000+0 48569-3 0 9992 2 59112 97.5592 32.8553 0004779 303.1861 56.8939 15.64041821138769 MESAT1 1 60209U 24125G 26237.12359662 .00089161 00000+0 68244-3 0 9996 2 60209 97.2172 96.5607 0005622 324.7467 35.3424 15.71848930120367 GRBBETA 1 60237U 24128C 26237.36605204 .00003353 00000+0 23439-3 0 9998 2 60237 61.9920 333.4723 0030853 149.7657 210.5225 15.07068956116697 OOV-CUBE (TUBSAT-30) 1 60240U 24128F 26237.38330845 .00002149 00000+0 17231-3 0 9995 2 60240 61.9971 344.2420 0035178 149.6421 210.6717 15.03031266116512 COLIBRI-S (RS67S) 1 61746U 24199M 26237.88949301 .00022391 00000+0 39330-3 0 9998 2 61746 97.2868 112.4763 0008979 39.9589 320.2322 15.50483077148205 HORS 3 (RS81S) 1 61753U 24199U 26237.93176120 .00043392 00000+0 53832-3 0 9990 2 61753 97.2855 115.3665 0006577 44.7315 315.4472 15.59891138148410 HORS 4 (RS82S) 1 61754U 24199V 26237.89300545 .00070644 00000+0 66615-3 0 9999 2 61754 97.2788 117.0816 0005173 45.3619 314.8063 15.66827280148535 SIT-2086 1 61764U 24199AF 26237.93011076 .00041611 00000+0 55435-3 0 9993 2 61764 97.2812 115.5988 0006281 28.3982 331.7616 15.58007239145277 ALTAIR (RS65S) 1 61779U 24199AW 26237.94069293 .00009883 00000+0 26395-3 0 9992 2 61779 97.2926 106.8522 0013951 59.7430 300.5194 15.38202852147839 ASRTU-1 (AO-123) 1 61781U 24199AY 26237.93063945 .00007089 00000+0 20005-3 0 9990 2 61781 97.2896 105.9790 0015189 62.1954 298.0828 15.36583433144634 SAMSAT-IONOSPHERE (RS7*) 1 61784U 24199BB 26237.94203215 .00063880 00000+0 66916-3 0 9992 2 61784 97.2812 115.7511 0007802 40.8948 319.2896 15.64181143148441 RTU MIREA 1 (RS51S) 1 61785U 24199BC 26237.89763906 .00087594 00000+0 72942-3 0 9999 2 61785 97.2794 116.9947 0006772 42.5619 317.6168 15.69815994145372 LASARSAT 1 62391U 24247Q 26237.96990589 .00037515 00000+0 64215-3 0 9996 2 62391 44.9711 228.8156 0007603 59.9625 300.2020 15.50633074 94131 CROCUBE 1 62394U 24247T 26237.03134957 .00043022 00000+0 67126-3 0 9990 2 62394 44.9685 230.1372 0007915 62.8834 297.2865 15.53158446 94030 TEVEL2-4 1 63213U 25052D 26237.96401061 .00017937 00000+0 49903-3 0 9990 2 63213 97.3800 134.5501 0002132 156.7646 203.3695 15.36888413 80829 TEVEL2-5 1 63214U 25052E 26237.47225635 .00018627 00000+0 52190-3 0 9997 2 63214 97.3801 133.9830 0001909 158.4449 201.6876 15.36660131 80748 TEVEL2-6 1 63215U 25052F 26237.68152751 .00017508 00000+0 49119-3 0 9993 2 63215 97.3804 134.1780 0001844 157.1439 202.9888 15.36633284 80771 TEVEL2-1 1 63217U 25052H 26237.21540064 .00017945 00000+0 51363-3 0 9991 2 63217 97.3777 133.2480 0001329 181.0795 179.0446 15.36001106 80684 TEVEL2-3 1 63218U 25052J 26237.66317171 .00017424 00000+0 49745-3 0 9995 2 63218 97.3780 133.7288 0001252 165.7192 194.4088 15.36087944 80750 TEVEL2-2 1 63219U 25052K 26237.15005463 .00018119 00000+0 51841-3 0 9990 2 63219 97.3779 133.1859 0001283 183.1287 176.9949 15.36012063 80672 OTP-2 1 63235U 25052AB 26237.93773432 .00005642 00000+0 23022-3 0 9999 2 63235 97.3768 129.3320 0004243 282.4850 77.5913 15.24808034 80491 TEVEL2-9 1 63237U 25052AD 26237.67705775 .00014953 00000+0 45839-3 0 9992 2 63237 97.3840 132.9296 0003852 245.6439 114.4402 15.33870090 80670 TEVEL2-7 1 63238U 25052AE 26235.51388802 .00015154 00000+0 47057-3 0 9990 2 63238 97.3840 130.6525 0003640 257.9226 102.1608 15.33456949 80334 TEVEL2-8 1 63239U 25052AF 26237.67610641 .00014962 00000+0 46384-3 0 9997 2 63239 97.3842 132.7877 0003768 248.7020 111.3820 15.33511361 80665 INNOSAT 16 (RS92S7) 1 64878U 25155C 26237.91179589 .00005577 00000+0 21873-3 0 9997 2 64878 97.4632 204.8791 0008638 307.1217 52.9232 15.26128946 91303 GEOSCAN 6 (RS92S6) 1 64879U 25155D 26237.92979165 .00010289 00000+0 34190-3 0 9999 2 64879 97.4620 206.8410 0005499 298.1694 61.8991 15.31373736 91431 GEOSCAN 1 (RS92S1) 1 64880U 25155E 26237.90249011 .00010493 00000+0 34112-3 0 9990 2 64880 97.4615 207.0278 0005356 298.5736 61.4966 15.32076547 91445 239ALFEROV (RS61S) 1 64881U 25155F 26237.89308990 .00014081 00000+0 42058-3 0 9996 2 64881 97.4612 207.8359 0004751 297.9644 62.1117 15.34705927 91494 GEOSCAN 2 (RS92S2) 1 64890U 25155Q 26237.88446796 .00010643 00000+0 34334-3 0 9990 2 64890 97.4615 207.1887 0004547 279.5753 80.4975 15.32324787 91456 GEOSCAN 5 (RS92S5) 1 64891U 25155R 26237.93353814 .00015152 00000+0 44820-3 0 9996 2 64891 97.4605 208.0398 0003779 308.1217 51.9685 15.35000102 91516 GEOSCAN 4 (RS92S4) 1 64892U 25155S 26237.90994116 .00014691 00000+0 43206-3 0 9994 2 64892 97.4610 208.0869 0003612 309.1164 50.9758 15.35188827 91515 GEOSCAN 3 (RS92S3) 1 64893U 25155T 26237.94073459 .00019456 00000+0 52825-3 0 9998 2 64893 97.4595 208.7716 0003374 309.0823 51.0121 15.37628310 91561 INNOSAT 3 (RS92S0) 1 64894U 25155U 26237.94183020 .00045076 00000+0 83413-3 0 9999 2 64894 97.4529 211.3922 0000914 338.6145 21.5067 15.48899895 91741 KNACKSAT-2 1 67683U 98067XZ 26237.58828125 .00054760 00000+0 51584-3 0 9996 2 67683 51.6273 303.7315 0007306 83.9600 276.2228 15.66502972 31130 MARINA 1 69920U 26156BD 26237.63469829 .00001733 00000+0 17600-3 0 9993 2 69920 97.7470 137.2833 0007552 3.9423 356.1854 14.92094720 7354